This is the latest recevied weather packets stored in our database for station/object N0EDB-13. If no packets are shown the sender has not sent any weather packets the latest 10 day(s).
| Time | Temp. | Humidity | Pressure | Rain* | Wind** | Luminosity | Snow |
|---|---|---|---|---|---|---|---|
| 1777790984 | 7.22° C | 45% | 1511.3 hPa | 0 mm | - | 0 W/m² | - |
| 1777790684 | 7.22° C | 46% | 1512.4 hPa | 0 mm | - | 0 W/m² | - |
| 1777790383 | 7.22° C | 47% | 1512.5 hPa | 0 mm | - | 0 W/m² | - |
| 1777790081 | 7.22° C | 45% | 1511.1 hPa | 0 mm | - | 0 W/m² | - |
| 1777789781 | 7.78° C | 45% | 1509.8 hPa | 0 mm | - | 0 W/m² | - |
| 1777789480 | 7.78° C | 47% | 1509.7 hPa | 0 mm | - | 0 W/m² | - |
| 1777789180 | 7.78° C | 47% | 1509.5 hPa | 0 mm | - | 0 W/m² | - |
| 1777788879 | 8.33° C | 48% | 1509.2 hPa | 0 mm | - | 0 W/m² | - |
| 1777788578 | 8.33° C | 46% | 1508.7 hPa | 0 mm | - | 0 W/m² | - |
| 1777788277 | 8.33° C | 45% | 1508.5 hPa | 0 mm | - | 0 W/m² | - |
| 1777787977 | 8.33° C | 46% | 1508.1 hPa | 0 mm | - | 0 W/m² | - |
| 1777787676 | 8.89° C | 46% | 1507.5 hPa | 0 mm | - | 0 W/m² | - |
| 1777787375 | 8.89° C | 46% | 1506.4 hPa | 0 mm | - | 0 W/m² | - |
| 1777787075 | 9.44° C | 44% | 1504.8 hPa | 0 mm | - | 0 W/m² | - |
| 1777786774 | 10° C | 43% | 1503.8 hPa | 0 mm | - | 0 W/m² | - |
| 1777786473 | 10° C | 41% | 1502.9 hPa | 0 mm | - | 0 W/m² | - |
| 1777786173 | 10.56° C | 41% | 1502.1 hPa | 0 mm | - | 0 W/m² | - |
| 1777785872 | 10.56° C | 44% | 1501.5 hPa | 0 mm | - | 0 W/m² | - |
| 1777785571 | 11.11° C | 42% | 1500.9 hPa | 0 mm | - | 0 W/m² | - |
| 1777785271 | 11.11° C | 39% | 1500.5 hPa | 0 mm | - | 0 W/m² | - |
| 1777784970 | 11.11° C | 30% | 1499.7 hPa | 0 mm | - | 0 W/m² | - |
| 1777784670 | 11.67° C | 26% | 1498.8 hPa | 0 mm | - | 0 W/m² | - |
| 1777784370 | 11.67° C | 26% | 1498.1 hPa | 0 mm | - | 0 W/m² | - |
| 1777784069 | 12.22° C | 26% | 1497.5 hPa | 0 mm | - | 0 W/m² | - |
| 1777783768 | 12.22° C | 26% | 1497.6 hPa | 0 mm | - | 0 W/m² | - |
* Rain latest hour (hover to see other rain measurements)
** Current wind speed in m/s (hover to see current wind gust speed)